Starlink 11507

operational
NORAD ID: 62519 Int'l Des: 2025-004 Owner: SPXS Country: US Constellation: starlink
LEOCIRCULAR

关于 Starlink 11507

正在加载描述...

实时位置

正在加载3D地球...

即将过境

高度历史

Altitude vs Time

uPlot chart will show altitude changes over time

两行轨道根数

1 62519U 25004J 25308.15416677 .00289333 00000-0 21732-2 0 9994
2 62519 42.9986 107.5420 0001098 0.9697 359.1173 15.70922546 47462
Epoch: Nov 4, 2025 • Age: 15 hours

当前状态

高度 356.5 km
速度 7.70 km/s
星下点 -4.89°S, 28.47°W
发射日期 Jan 8, 2025
运行时间 0.8 years
类型 internet

技术详情

分类 Payload
质量 960.00 kg
干质量 910.00 kg
总质量 960.00 kg
长度 0.30 m
直径 4.10 m
跨度 29.00 m
形状 Box + pan
制造商 SPXS
平台类型 Starlink V2MD
阶段状态 In Orbit
所有者/国家 SPXS/US

大型星座

Loading constellations...